This demonstration page uses our WeatherBlox Daily Observations layout. Learn more.

Left ArrowRight Arrow

Hourly Observations for November 11, 2015

Temp ( °F °C ) Dew Point ( °F °C ) Humidity (%) Winds ( mph kmh ) Pressure ( in mb ) Visibility ( mi km ) Precip ( " mm )
12:53 am 00:53 Clear 47 8.3 45 7.2 93 93 Calm 30.07 1018 8 13 0.00 0.00
1:53 am 01:53 Clear 47 8.3 45 7.2 93 93 Calm 30.05 1018 7 11 0.00 0.00
2:06 am 02:06 Clear with Mist and Fog 46 8 45 7 93 93 Calm 30.09 1019 2 3 0.00 0.00
2:14 am 02:14 Mostly Cloudy with Mist and Fog 45 7 45 7 100 100 Calm 30.09 1019 1 2 0.00 0.00
2:17 am 02:17 Mostly Cloudy with Fog 46 7.8 44 6.7 93 93 Calm 30.09 1019 1 1 0.00 0.00
2:27 am 02:27 Mostly Cloudy with Mist and Fog 47 8.3 44 6.7 90 90 Calm 30.09 1019 1 2 0.00 0.00
2:30 am 02:30 Partly Cloudy with Mist and Fog 46 8 45 7 93 93 Calm 30.09 1019 3 4 0.00 0.00
2:37 am 02:37 Partly Cloudy 47 8.3 45 7.2 93 93 Calm 30.09 1019 10 16 0.00 0.00
2:53 am 02:53 Clear 46 7.8 44 6.7 93 93 Calm 30.06 1018 8 13 0.00 0.00
3:08 am 03:08 Clear with Mist and Fog 45 7 43 6 93 93 Calm 30.09 1019 2 2 0.00 0.00
3:15 am 03:15 Clear with Fog 45 7.2 43 6.1 93 93 Calm 30.09 1019 1 1 0.00 0.00
3:19 am 03:19 Clear with Mist and Fog 45 7.2 43 6.1 93 93 Calm 30.09 1019 1 2 0.00 0.00
3:23 am 03:23 Clear with Mist and Fog 45 7.2 43 6.1 93 93 Calm 30.09 1019 3 5 0.00 0.00
3:53 am 03:53 Clear with Mist and Fog 46 7.8 43 6.1 89 89 WSW 3 6 30.06 1018 6 10 0.00 0.00
4:53 am 04:53 Clear 46 7.8 43 6.1 89 89 Calm 30.07 1018 8 13 0.00 0.00
5:53 am 05:53 Clear with Mist and Fog 43 6.1 41 5 93 93 Calm 30.07 1018 2 2 0.00 0.00
5:56 am 05:56 Mostly Cloudy with Mist and Fog 43 6 41 5 93 93 Calm 30.12 1020 1 2 0.00 0.00
6:06 am 06:06 Mostly Cloudy with Mist and Fog 43 6 41 5 93 93 Calm 30.12 1020 3 5 0.00 0.00
6:09 am 06:09 Mostly Cloudy with Mist and Fog 44 6.7 42 5.6 93 93 Calm 30.12 1020 2 3 0.00 0.00
6:53 am 06:53 Clear with Mist and Fog 43 6.1 40 4.4 89 89 Calm 30.08 1019 5 8 0.00 0.00
7:53 am 07:53 Sunny 45 7.2 43 6.1 93 93 Calm 30.09 1019 9 14 0.00 0.00
8:53 am 08:53 Sunny 51 10.6 48 8.9 89 89 Calm 30.10 1019 10 16 0.00 0.00
9:53 am 09:53 Sunny 58 14.4 49 9.4 72 72 Calm 30.10 1019 10 16 0.00 0.00
10:53 am 10:53 Sunny 65 18.3 51 10.6 61 61 VRB 3 6 30.09 1019 10 16 0.00 0.00
11:53 am 11:53 Sunny 67 19.4 50 10 55 55 Calm 30.07 1018 10 16 0.00 0.00
12:53 pm 12:53 Sunny 71 21.7 48 8.9 44 44 SSW 5 7 30.03 1017 10 16 0.00 0.00
1:53 pm 13:53 Sunny 73 22.8 45 7.2 37 37 Calm 30.01 1016 10 16 0.00 0.00
2:53 pm 14:53 Sunny 74 23.3 45 7.2 36 36 VRB 3 6 29.98 1015 10 16 0.00 0.00
3:53 pm 15:53 Sunny 74 23.3 43 6.1 33 33 VRB 5 7 29.98 1015 10 16 0.00 0.00
4:53 pm 16:53 Sunny 73 22.8 44 6.7 35 35 SW 5 7 29.98 1015 10 16 0.00 0.00
5:53 pm 17:53 Clear 67 19.4 48 8.9 51 51 SSE 3 6 29.97 1015 10 16 0.00 0.00
6:53 pm 18:53 Clear 59 15 52 11.1 78 78 Calm 29.99 1016 10 16 0.00 0.00
7:53 pm 19:53 Clear 56 13.3 51 10.6 84 84 Calm 29.99 1016 10 16 0.00 0.00
8:53 pm 20:53 Clear 55 12.8 51 10.6 87 87 Calm 29.98 1015 10 16 0.00 0.00
9:53 pm 21:53 Clear 54 12.2 50 10 87 87 Calm 29.98 1015 10 16 0.00 0.00
10:53 pm 22:53 Clear 52 11.1 49 9.4 89 89 Calm 29.98 1015 10 16 0.00 0.00
11:53 pm 23:53 Clear 56 13.3 52 11.1 87 87 SW 8 13 29.99 1016 10 16 0.00 0.00

Powered by AerisWeather